Regional Weather Roundup
Issued by NWS Austin/San Antonio, TX

Home | Current Version | Previous Version | Text Only | Print | Product List | Glossary On
Versions: 1 2 3 4 5 6 7 8 9 10 11 12 13 14 15 16 17 18 19 20 21 22 23 24 25 26 27 28 29 30 31 32 33 34 35 36 37 38 39 40 41 42 43 44 45 46 47 48 49 50
000
ASUS44 KEWX 240101
RWREWX
SOUTH TEXAS REGIONAL WEATHER ROUNDUP
NATIONAL WEATHER SERVICE AUSTIN/SAN ANTONIO TX
700 PM CST SUN FEB 23 2020

NOTE: "FAIR" INDICATED FEW OR NO CLOUDS BELOW 12,000 FEET WITH NO
SIGNIFICANT WEATHER AND/OR OBSTRUCTIONS TO VISIBILITY.

* - THESE STATIONS ARE NOT NWS OR FAA STATIONS...AND ARE NOT SUBJECT
    TO NWS AND FAA QUALITY CONTROL.

TXZ171-172-183>190-240200-
TEXAS HILL COUNTRY AND EDWARDS PLATEAU

CITY           SKY/WX    TMP DP  RH WIND       PRES   REMARKS
JUNCTION       CLEAR     59  54  83 E3        29.90S
*LLANO         PTCLDY    61  55  82 CALM      29.92S
BURNET         CLEAR     61  56  83 S6        29.91S
*HORSESHOE BAY NOT AVBL
*LAGO VISTA    PTCLDY    62  58  85 SE5       29.91S
*KERRVILLE     CLEAR     59  55  86 CALM      29.90F
*FREDERICKSBRG CLEAR     60  54  79 SE3       29.90F
*ROCKSPRINGS     N/A     59  54  82 S7        29.95R
*BOERNE        PTCLDY    63  55  77 CALM      29.93R
*CASTROVILLE   PTCLDY    72  57  58 SE5       29.91S
HONDO          CLEAR     67  56  67 E3        29.90R
*UVALDE        CLEAR     68  56  65 E5        29.90R
DEL RIO        CLEAR     72  52  49 SE7       29.83F
*LAUGHLIN AFB  CLEAR     68  55  62 SE8       29.84S
*SPOFFORD      NOT AVBL
*EAGLE PASS    CLEAR     73  54  49 E8        29.86S
CARRIZO SPRGS  CLEAR     73  55  53 E3        29.85R
*FAITH RANCH   CLEAR     73  55  53 SE5       29.86R
$$

TXZ173-191>194-202-209-217>225-228-240200-
CENTRAL AND SOUTH CENTRAL TEXAS

CITY           SKY/WX    TMP DP  RH WIND       PRES   REMARKS
GEORGETOWN     PTCLDY    62  58  86 SE6       29.91F
*TAYLOR        MOCLDY    64  59  86 SE12      29.91F
AUSTIN/BERGSTM CLOUDY    67  60  78 SE6       29.91F
AUSTIN/MABRY   CLOUDY    67  58  72 SE6       29.91F
*PFLUGERVILLE  CLOUDY    64  59  82 SE10      29.91F
SAN MARCOS     CLOUDY    68  59  73 SE7       29.92S
NEW BRAUNFELS  CLOUDY    70  58  65 SE10      29.90S
*RANDOLPH AFB  CLOUDY    66  59  77 SE7       29.91
*SEGUIN        CLOUDY    68  58  71 S9        29.94F
SAN ANTONIO    CLOUDY    68  57  68 SE6       29.91S
STINSON FIELD  MOCLDY    69  59  70 SE7       29.89R
*KELLY FIELD   PTCLDY    69  58  68 E6        29.88S
*PLEASANTON    PTCLDY    69  59  69 SE8       29.88F
*KENEDY        CLOUDY    70  61  73 SE13      29.93R
*LA GRANGE     CLOUDY    68  61  77 SE12G20   29.92F
*GIDDINGS      CLOUDY    65  60  82 SE5       29.94F
*GONZALES      CLOUDY    70  60  70 SE12      29.91F
$$

TXZ163>164-176>182-195>201-210>213-226-227-235-240200-
SOUTHEAST TEXAS

CITY           SKY/WX    TMP DP  RH WIND       PRES   REMARKS
COLLEGE STN    CLOUDY    63  59  87 E8        29.96R
*BRYAN         CLOUDY    61  61 100 E8        29.98S
*CALDWELL      CLOUDY    62  60  93 E5        29.96R
*CROCKETT      NOT AVBL
*BRENHAM       CLOUDY    65  60  83 SE3       29.96S
HUNTSVILLE     CLOUDY    60  57  89 E3        29.99S
CONROE         CLOUDY    63  56  78 SE10      30.01R
HOUSTON BUSH   CLOUDY    64  57  78 SE13      30.00R
HOUSTON HOBBY  CLOUDY    64  58  80 SE13      29.98S
*HOUSTON SW AP CLOUDY    63  60  88 SE5       30.00R
PEARLAND       CLOUDY    65  58  78 SE10      30.00S
HOUSTON HOOKS  CLOUDY    63  56  78 SE10      29.99R
ELLINGTON FLD  NOT AVBL
SUGAR LAND     CLOUDY    66  59  78 SE12      29.99R
*HOUSTON EXEC  CLOUDY    66  59  77 S9        29.99R
*CLEVELAND MUN CLOUDY    63  56  78 SE3       30.02R
*WHARTON       NOT AVBL
*COLUMBUS      CLOUDY    64  55  72 S6        29.98R
*EAGLE LAKE    CLOUDY    68  61  77 SE9G16    29.97
$$

TXZ214>216-236>238-240200-
THE UPPER TEXAS COAST

CITY           SKY/WX    TMP DP  RH WIND       PRES   REMARKS
*ORANGE        CLOUDY    63  58  82 SE9       30.04S
PORT ARTHUR    CLOUDY    63  58  83 SE15      30.00F
GALVESTON      CLOUDY    65  61  87 E18       29.98F
ANGLETON       CLOUDY    66  60  81 SE7       29.98S
*BAY CITY      CLOUDY    69  63  80 SE13G18   29.97R
PALACIOS       CLOUDY    67  60  78 SE14      29.97R
$$

TXZ229>234-239>247-240200-
TEXAS COASTAL BEND AND RIO GRANDE PLAINS

CITY           SKY/WX    TMP DP  RH WIND       PRES   REMARKS
VICTORIA       CLOUDY    69  61  75 SE15      29.95R
*BEEVILLE      CLOUDY    71  66  84 SE16G22   29.90R
ROCKPORT       CLOUDY    68  62  81 SE8       29.94R
*PORT ARANSAS  CLOUDY    66  64  91 SE14G20   29.95S
*PORT LAVACA   CLOUDY    69  65  87 SE12      29.96R
*INGLESIDE     PTCLDY    69  66  92 S13       29.92S
CORPUS CHRISTI MOCLDY    69  63  81 SE17      29.91F
CORPUS NAS     PTCLDY    67  66  97 SE14      29.92F
*ROBSTOWN      CLOUDY    70  63  78 SE16      29.92S
ALICE          CLEAR     70  63  78 SE14      29.88F
KINGSVILLE NAS MOCLDY    70  64  81 SE18G25   29.90S
COTULLA        CLEAR     74  59  59 SE7       29.85F
LAREDO         CLEAR     76  58  53 SE9       29.83S
$$

TXZ248>255-240200-
DEEP SOUTH TEXAS

CITY           SKY/WX    TMP DP  RH WIND       PRES   REMARKS
BROWNSVILLE    CLOUDY    72  65  78 S16       29.91R
PORT ISABEL    FAIR      71  65  81 S12       29.90R
HARLINGEN      PTCLDY    72  64  76 S13       29.90R
*HEBBRONVILLE  CLEAR     73  57  57 S10       29.86F
MCALLEN        CLEAR     74  62  66 SE15      29.89R
*WESLACO       MOCLDY    73  62  69 S13G21    29.89
FALFURRIAS     PTCLDY    75  63  67 SE8       29.88S
EDINBURG       FAIR      74  59  59 S16       29.89R
*ZAPATA        FAIR      80  59  48 SE6       29.84F
$$

TXZ213>215-236>238-242>244-246-247-251-254-255-240200-
CMAN STATIONS

STATION/POSITION TIME  TEMP    WIND        PRES    WAVE
                       AIR SEA DIR/SP/G            HT/PER
                 (UTC) (F)     (DEG/KT/KT) (MB)    (FT/S)
SABINE PASS      0018   61 60  120/ 15/ 19 1017.9
NORTH JETTY/GLS  0018   62 59  120/ 17/ 18 1014.8
EAGLE POINT      0018   61 57  120/ 15/ 17 1014.8
MORGANS POINT    0018   61 59  120/ 17/ 19 1015.1
PORT O`CONNOR    0030      64  140/ 14/ 16 1013.5
PORT ARANSAS     0000   64 61  110/  8/  9 1013.6
MALAQUITE BEACH  0030      63  100/ 11/ 12 1012.9
BAFFIN BAY       0030      66  110/ 12/ 15 1013.3
PORT ISABEL      0030      63  150/ 11/ 13 1013.0
$$



USA.gov is the U.S. government's official web portal to all federal, state and local government web resources and services.